CEB650 RPVA-RPLL

Flight info

Callsign CEB650
Flight time N/A
Altitude 31000
Route MALA4R MALAG W9 AKDAP AKDA3R
Aircraft A320/M-VGDW/C

Departure

Time 2026-04-28 20:19
Airport Daniel Z. Romualdez Airport (RPVA)

Arrival

Time N/A
Airport Ninoy Aquino International Airport (RPLL)
Time Latitude Longitude Altitude Speed Heading
2026-04-28 19:51 11.22585 125.02645 19 ft 0 kts 306°
2026-04-28 20:10 11.22586 125.02644 19 ft 0 kts 326°
2026-04-28 20:10 11.22591 125.02648 19 ft 1 kts 71°
2026-04-28 20:11 11.22583 125.02673 19 ft 4 kts 111°
2026-04-28 20:11 11.22570 125.02708 19 ft 5 kts 111°
2026-04-28 20:11 11.22571 125.02749 19 ft 6 kts 52°
2026-04-28 20:11 11.22617 125.02765 19 ft 8 kts
2026-04-28 20:12 11.22681 125.02769 19 ft 9 kts
2026-04-28 20:12 11.22752 125.02774 19 ft 10 kts
2026-04-28 20:12 11.22831 125.02779 19 ft 11 kts
2026-04-28 20:12 11.22918 125.02786 18 ft 12 kts
2026-04-28 20:13 11.23009 125.02792 18 ft 13 kts
2026-04-28 20:13 11.23105 125.02799 18 ft 13 kts
2026-04-28 20:13 11.23204 125.02805 18 ft 14 kts
2026-04-28 20:13 11.23306 125.02811 18 ft 14 kts
2026-04-28 20:14 11.23410 125.02819 17 ft 15 kts
2026-04-28 20:14 11.23519 125.02826 17 ft 15 kts
2026-04-28 20:14 11.23629 125.02827 17 ft 13 kts 348°
2026-04-28 20:14 11.23694 125.02809 17 ft 5 kts 357°
2026-04-28 20:15 11.23711 125.02819 17 ft 4 kts 63°
2026-04-28 20:15 11.23699 125.02837 17 ft 2 kts 176°
2026-04-28 20:15 11.23692 125.02837 17 ft 0 kts 182°
2026-04-28 20:18 11.23639 125.02834 17 ft 34 kts 182°
2026-04-28 20:18 11.23132 125.02801 18 ft 107 kts 183°
2026-04-28 20:18 11.22187 125.02739 34 ft 161 kts 181°
2026-04-28 20:19 11.21020 125.02662 441 ft 172 kts 180°
2026-04-28 20:19 11.19773 125.02563 1095 ft 174 kts 179°
2026-04-28 20:19 11.18624 125.02749 1741 ft 164 kts 139°
2026-04-28 20:19 11.18013 125.03685 2236 ft 164 kts 99°
2026-04-28 20:20 11.18107 125.04861 2661 ft 178 kts 68°
2026-04-28 20:20 11.18949 125.05857 3084 ft 198 kts 39°
2026-04-28 20:20 11.20131 125.06665 3533 ft 213 kts 39°
2026-04-28 20:20 11.21406 125.07608 3902 ft 236 kts 40°
2026-04-28 20:21 11.22780 125.08636 4388 ft 253 kts 40°
2026-04-28 20:21 11.24229 125.09714 5069 ft 262 kts 39°
2026-04-28 20:21 11.25708 125.10808 5861 ft 265 kts 39°
2026-04-28 20:21 11.27203 125.11893 6623 ft 269 kts 35°
2026-04-28 20:22 11.29000 125.12511 7313 ft 282 kts
2026-04-28 20:22 11.30919 125.12018 8095 ft 291 kts 332°
2026-04-28 20:22 11.32517 125.10742 8859 ft 296 kts 321°
2026-04-28 20:22 11.34093 125.09366 9548 ft 300 kts 322°
2026-04-28 20:23 11.35713 125.07993 10262 ft 303 kts 322°
2026-04-28 20:23 11.37356 125.06626 10708 ft 316 kts 323°
2026-04-28 20:23 11.39140 125.05164 11014 ft 333 kts 323°
2026-04-28 20:23 11.41005 125.03650 11301 ft 350 kts 323°
2026-04-28 20:24 11.42964 125.02066 11575 ft 366 kts 323°
2026-04-28 20:24 11.45014 125.00411 11836 ft 382 kts 323°
2026-04-28 20:24 11.47131 124.98704 12080 ft 396 kts 323°
2026-04-28 20:24 11.49333 124.96929 12434 ft 406 kts 323°
2026-04-28 20:25 11.51558 124.95134 12963 ft 410 kts 323°
2026-04-28 20:25 11.53796 124.93329 13509 ft 413 kts 323°
2026-04-28 20:25 11.56085 124.91482 14060 ft 415 kts 323°
2026-04-28 20:25 11.58356 124.89649 14607 ft 417 kts 323°
2026-04-28 20:26 11.60622 124.87820 15132 ft 419 kts 323°
2026-04-28 20:26 11.62936 124.85953 15644 ft 420 kts 323°
2026-04-28 20:26 11.65228 124.84103 16121 ft 422 kts 323°
2026-04-28 20:26 11.67580 124.82205 16586 ft 425 kts 322°
2026-04-28 20:27 11.69916 124.80319 17021 ft 427 kts 322°
2026-04-28 20:27 11.72261 124.78424 17441 ft 429 kts 322°
2026-04-28 20:27 11.74598 124.76534 17853 ft 432 kts 322°
2026-04-28 20:27 11.76984 124.74606 18258 ft 434 kts 322°
2026-04-28 20:28 11.79357 124.72686 18652 ft 436 kts 322°
2026-04-28 20:28 11.81733 124.70765 19028 ft 438 kts 322°
2026-04-28 20:28 11.84141 124.68818 19392 ft 441 kts 322°
2026-04-28 20:28 11.86567 124.66856 19753 ft 443 kts 322°
2026-04-28 20:29 11.89010 124.64879 20114 ft 446 kts 322°
2026-04-28 20:29 11.91451 124.62904 20468 ft 448 kts 322°
2026-04-28 20:29 11.93920 124.60905 20817 ft 450 kts 322°
2026-04-28 20:29 11.96394 124.58901 21154 ft 453 kts 322°
2026-04-28 20:30 11.98866 124.56898 21490 ft 455 kts 322°
2026-04-28 20:30 12.01361 124.54877 21826 ft 458 kts 322°
2026-04-28 20:30 12.03900 124.52818 22168 ft 460 kts 322°
2026-04-28 20:30 12.06417 124.50778 22512 ft 462 kts 322°
2026-04-28 20:31 12.08921 124.48747 22864 ft 464 kts 322°
2026-04-28 20:31 12.11469 124.46684 23217 ft 465 kts 322°
2026-04-28 20:31 12.14019 124.44626 23568 ft 467 kts 322°
2026-04-28 20:31 12.16569 124.42564 23910 ft 468 kts 322°
2026-04-28 20:32 12.19144 124.40479 24234 ft 470 kts 322°
2026-04-28 20:32 12.21702 124.38403 24544 ft 472 kts 322°
2026-04-28 20:32 12.24299 124.36290 24853 ft 474 kts 321°
2026-04-28 20:32 12.26904 124.34166 25152 ft 475 kts 321°
2026-04-28 20:33 12.29492 124.32044 25443 ft 477 kts 321°
2026-04-28 20:33 12.32062 124.29941 25821 ft 476 kts 321°
2026-04-28 20:33 12.34618 124.27801 26256 ft 473 kts 319°
2026-04-28 20:33 12.37048 124.25519 26682 ft 471 kts 315°
2026-04-28 20:34 12.39327 124.23083 27098 ft 469 kts 311°
2026-04-28 20:34 12.41439 124.20545 27514 ft 467 kts 309°
2026-04-28 20:34 12.43500 124.17986 27905 ft 465 kts 309°
2026-04-28 20:34 12.45529 124.15450 28293 ft 463 kts 309°
2026-04-28 20:35 12.47566 124.12902 28677 ft 462 kts 309°
2026-04-28 20:35 12.49616 124.10338 29047 ft 460 kts 308°
2026-04-28 20:35 12.51644 124.07802 29379 ft 459 kts 308°
2026-04-28 20:35 12.53669 124.05271 29632 ft 460 kts 308°
2026-04-28 20:36 12.55698 124.02734 29860 ft 461 kts 308°
2026-04-28 20:36 12.57713 124.00215 30077 ft 463 kts 308°
2026-04-28 20:36 12.59771 123.97642 30285 ft 464 kts 308°
2026-04-28 20:36 12.61833 123.95064 30493 ft 465 kts 308°
2026-04-28 20:37 12.63908 123.92471 30710 ft 465 kts 308°
2026-04-28 20:37 12.65969 123.89893 30880 ft 466 kts 308°
2026-04-28 20:37 12.68031 123.87312 30891 ft 467 kts 308°
2026-04-28 20:38 12.72157 123.82149 30901 ft 466 kts 308°
2026-04-28 20:38 12.76290 123.76971 30901 ft 466 kts 308°
2026-04-28 20:39 12.80409 123.71809 30899 ft 466 kts 308°
2026-04-28 20:39 12.84530 123.66641 30902 ft 465 kts 308°
2026-04-28 20:40 12.88636 123.61490 30900 ft 466 kts 308°
2026-04-28 20:40 12.92761 123.56313 30903 ft 466 kts 308°
2026-04-28 20:41 12.96896 123.51119 30904 ft 466 kts 308°
2026-04-28 20:41 13.01026 123.45928 30903 ft 466 kts 308°
2026-04-28 20:42 13.05142 123.40753 30902 ft 465 kts 308°
2026-04-28 20:42 13.09244 123.35591 30901 ft 465 kts 308°
2026-04-28 20:43 13.13350 123.30425 30905 ft 465 kts 308°
2026-04-28 20:43 13.17443 123.25279 30906 ft 466 kts 308°
2026-04-28 20:44 13.21559 123.20094 30905 ft 466 kts 308°
2026-04-28 20:44 13.25654 123.14932 30906 ft 466 kts 308°
2026-04-28 20:45 13.29748 123.09766 30905 ft 465 kts 308°
2026-04-28 20:45 13.33826 123.04617 30906 ft 465 kts 308°
2026-04-28 20:46 13.37940 122.99420 30905 ft 465 kts 308°
2026-04-28 20:46 13.42060 122.94212 30903 ft 465 kts 308°
2026-04-28 20:47 13.46143 122.89047 30905 ft 465 kts 308°
2026-04-28 20:47 13.50239 122.83862 30904 ft 465 kts 308°
2026-04-28 20:48 13.54311 122.78705 30906 ft 465 kts 308°
2026-04-28 20:48 13.58399 122.73525 30906 ft 466 kts 308°
2026-04-28 20:49 13.62489 122.68339 30905 ft 466 kts 308°
2026-04-28 20:49 13.66577 122.63152 30907 ft 466 kts 308°
2026-04-28 20:50 13.70684 122.57939 30907 ft 466 kts 308°
2026-04-28 20:50 13.74783 122.52732 30912 ft 466 kts 308°
2026-04-28 20:51 13.78893 122.47507 30919 ft 466 kts 308°
2026-04-28 20:51 13.82958 122.42335 30920 ft 465 kts 308°
2026-04-28 20:52 13.87053 122.37122 30922 ft 466 kts 308°
2026-04-28 20:52 13.91118 122.31931 30918 ft 465 kts 307°
2026-04-28 20:53 13.97207 122.24137 30915 ft 466 kts 308°
2026-04-28 20:53 14.01300 122.18911 30912 ft 466 kts 308°
2026-04-28 20:54 14.05394 122.13683 30907 ft 467 kts 307°
2026-04-28 20:54 14.09465 122.08485 30906 ft 467 kts 307°
2026-04-28 20:55 14.13552 122.03287 30906 ft 466 kts 308°